This is the latest recevied weather packets stored in our database for station/object WB4YDL. If no packets are shown the sender has not sent any weather packets the latest 1 day(s).
| Time | Temp. | Humidity | Pressure | Rain* | Wind** | Luminosity | Snow |
|---|---|---|---|---|---|---|---|
| 1778072849 | 9.44° C | 94% | 1008.2 hPa | 0 mm | - | 92 W/m² | - |
| 1778072546 | 9.44° C | 95% | 1008.1 hPa | 0 mm | - | 132 W/m² | - |
| 1778071942 | 8.89° C | 95% | 1008.2 hPa | 0 mm | - | 81 W/m² | - |
| 1778069825 | 8.89° C | 96% | 1007.7 hPa | 0 mm | - | 60 W/m² | - |
| 1778069521 | 8.89° C | 96% | 1007.8 hPa | 0 mm | - | 46 W/m² | - |
| 1778069219 | 8.89° C | 96% | 1007.7 hPa | 0 mm | - | 38 W/m² | - |
| 1778068009 | 8.33° C | 96% | 1007 hPa | 0 mm | - | 22 W/m² | - |
| 1778067707 | 8.33° C | 96% | 1007.2 hPa | 0 mm | - | 26 W/m² | - |
| 1778066798 | 8.33° C | 96% | 1007.3 hPa | 0 mm | - | 10 W/m² | - |
| 1778065891 | 8.33° C | 97% | 1007.3 hPa | 0 mm | - | 3 W/m² | - |
| 1778065286 | 8.33° C | 99% | 1007.5 hPa | 0 mm | - | 1 W/m² | - |
| 1778064982 | 8.33° C | 99% | 1007 hPa | 0 mm | - | 0 W/m² | - |
| 1778064679 | 8.33° C | 99% | 1007.4 hPa | 0 mm | - | 0 W/m² | - |
| 1778063772 | 8.33° C | 99% | 1007 hPa | 0 mm | - | 0 W/m² | - |
| 1778063167 | 8.89° C | 99% | 1006.3 hPa | 0 mm | - | 0 W/m² | - |
| 1778062864 | 8.89° C | 99% | 1006.2 hPa | 0 mm | - | 0 W/m² | - |
| 1778061352 | 8.89° C | 99% | 1006.1 hPa | 0 mm | - | 0 W/m² | - |
| 1778061048 | 8.89° C | 99% | 1006.1 hPa | 0 mm | - | 0 W/m² | - |
| 1778060746 | 8.89° C | 99% | 1006.1 hPa | 0 mm | - | 0 W/m² | - |
| 1778059838 | 9.44° C | 99% | 1006.2 hPa | 0 mm | - | 0 W/m² | - |
| 1778059233 | 9.44° C | 99% | 1006.3 hPa | 0 mm | - | 0 W/m² | - |
| 1778058326 | 9.44° C | 99% | 1005.7 hPa | 0 mm | - | 0 W/m² | - |
| 1778055900 | 9.44° C | 99% | 1005 hPa | 0 mm | - | 0 W/m² | - |
| 1778055294 | 9.44° C | 99% | 1004.9 hPa | 0 mm | - | 0 W/m² | - |
| 1778054688 | 9.44° C | 99% | 1004.3 hPa | 0 mm | - | 0 W/m² | - |
* Rain latest hour (hover to see other rain measurements)
** Current wind speed in m/s (hover to see current wind gust speed)